Weather Roundup
Issued by NWS Chicago, IL

Home | Current Version | Previous Version | Graphics & Text | Print | Product List | Glossary Off
Versions: 1 2 3 4 5 6 7 8 9 10 11 12 13 14 15 16 17 18 19 20 21 22 23 24 25 26 27 28 29 30 31 32 33 34 35 36 37 38 39 40 41 42 43 44 45 46 47 48 49 50

000
NZUS59 KLOT 261709
HRRLOT

CHICAGO AREA WEATHER ROUNDUP
NATIONAL WEATHER SERVICE CHICAGO/ROMEOVILLE IL
1200 PM CDT TUE MAY 26 2015

NOTE: "FAIR" INDICATES FEW OR NO CLOUDS BELOW 12,000 FEET WITH NO
SIGNIFICANT WEATHER AND/OR OBSTRUCTIONS TO VISIBILITY.

* THESE STATIONS ARE NOT UNDER NWS QUALITY CONTROL. THEY ALSO MAY NOT
  REPORT WEATHER SUCH AS PRECIPITATION OR FOG.

ILZ005-006-012>014-019>023-261800-
NORTHEAST ILLINOIS

CITY           SKY/WX    TMP DP  RH WIND       PRES   REMARKS
OHARE          CLOUDY    72  65  78 S16G28    29.81F
MIDWAY         CLOUDY    76  66  71 SE18G24   29.82F
AURORA         HVY RAIN  69  66  90 S13       29.81S VSB 1/2
LANSING*       CLOUDY    74  63  69 S16G22    29.85F
JOLIET*        RAIN      72  68  86 S8G20     29.81F
WAUKEGAN       CLOUDY    61  59  93 SE13      29.82F FOG
DUPAGE AIRPORT RAIN      71  65  81 SE14G25   29.79F
WHEELING       CLOUDY    73  65  75 S16       29.83F
KANKAKEE*      CLOUDY    71  68  89 S18G30    29.85F
MORRIS*        HVY RAIN  69  67  92 S17G24    29.80S
LEWIS AIRPORT* RAIN      72  65  79 S18G25    29.81F
NORTHERLY IS     N/A     68  61  78 SE13        N/A
$$

WIZ051-052-058>065-066-070>072-261800-
SOUTHEAST WISCONSIN

CITY           SKY/WX    TMP DP  RH WIND       PRES   REMARKS
MILWAUKEE      LGT RAIN  63  60  90 SE18      29.83F FOG
KENOSHA*       CLOUDY    66  62  87 SE13      29.82F
RACINE*        LGT RAIN  61  58  90 SE14      29.84F FOG
BURLINGTON     LGT RAIN  67  64  90 E7        29.81F
WAUKESHA       CLOUDY    66  63  88 SE14      29.84F
WEST BEND      CLOUDY    70  63  78 SE9       29.84S
$$

INZ001>003-010>013-019-020-261800-
NORTHWEST INDIANA

CITY           SKY/WX    TMP DP  RH WIND       PRES   REMARKS
GARY*          CLOUDY    77  66  69 SE23      29.86F
MICHIGAN CITY* NOT AVBL
RENSSELAER*    NOT AVBL
VALPARAISO     CLOUDY    76  64  66 SE13G24   29.88F
$$

LMZ740>746-261800-
SOUTHERN LAKE MICHIGAN

STATION/POSITION TIME  SKY/WX   TEMP WIND        PRES    VSBY
                                AIR  DIR/SP/G
                 (UTC)          (F)  (DEG/KT/KT) (MB)    (MI)
HARRISON CRIB    1600            61  130/ 18/ 19   N/A
BURNHAM HARBOR   1700            69  140/ 14/ 15   N/A
CALUMET HARBOR   1600            72  150/  7/ 17   N/A
BURNS HARBOR     1622            75  160/ 15/ 26 1011.9F
MICHIGAN CITY    1600            73  140/ 15/ 19   N/A
$$

ABBREVIATIONS USED IN REMARKS
   TC - TEMPERATURE IN CELSIUS
  WCI - WIND CHILL INDEX
   HX - HEAT INDEX
  VSB - VISIBILITY
$$



USA.gov is the U.S. government's official web portal to all federal, state and local government web resources and services.